Regional Weather Roundup
Issued by NWS Burlington, VT

Home | Current Version | Previous Version | Text Only | Print | Product List | Glossary On
Versions: 1 2 3 4 5 6 7 8 9 10 11 12 13 14 15 16 17 18 19 20 21 22 23 24 25 26 27 28 29 30 31 32 33 34 35 36 37 38 39 40 41 42 43 44 45 46 47 48 49 50
808
ASUS41 KBTV 301630
RWRBTV
VERMONT REGIONAL WEATHER ROUNDUP
NATIONAL WEATHER SERVICE BURLINGTON VT
1200 PM EDT FRI SEP 30 2016

NOTE: "FAIR" INDICATES FEW OR NO CLOUDS BELOW 12,000 FEET WITH NO
SIGNIFICANT WEATHER AND/OR OBSTRUCTIONS TO VISIBILITY.

* THESE REPORTS ARE NOT UNDER NWS QUALITY CONTROL AND/OR DO NOT
  REPORT WEATHER SUCH AS PRECIPITATION AND FOG.

VTZ001>019-301700-
_____VERMONT_____


CITY           SKY/WX    TMP DP  RH WIND       PRES   REMARKS
BURLINGTON     PTSUNNY   62  38  40 SE7       30.47F
MONTPELIER     FAIR      54  44  69 VRB5      30.53F
MORRISVILLE    FAIR      59  42  53 CALM      30.51F
ST. JOHNSBURY*   N/A     55  41  59 MISG      30.50S
LYNDONVILLE*   FAIR      54  40  58 CALM      30.51F
MIDDLEBURY*    FAIR      60  33  35 SE10G20   30.46F
RUTLAND*       FAIR      57  39  51 SE10      30.46F
SPRINGFIELD    FAIR      57  43  59 VRB7      30.48F
HIGHGATE*      FAIR      63  49  60 CALM      30.47F
NEWPORT*       FAIR      58  42  54 E5        30.49F
BENNINGTON     FAIR      59  44  57 SE10G18   30.43F
SUTTON*          N/A     54 N/A N/A MISG        N/A
ISLAND POND*     N/A     55 N/A N/A SE7         N/A
GALLUP MILLS*    N/A     55 N/A N/A MISG        N/A
UNION VILLAGE*   N/A     57 N/A N/A MISG        N/A
MT. MANSFIELD*   N/A     52 N/A N/A SE13        N/A

_____LAKE CHAMPLAIN_____


CITY           SKY/WX    TMP DP  RH WIND       PRES   REMARKS
BURTON ISLAND*   N/A     63  43  48 W1          N/A
COLCHESTER RF*   N/A     59  43  55 S5          N/A
DIAMOND ISL*     N/A     59  39  47 SW1         N/A

$$

NYZ007-026>031-035-052-083-087-301700-
_____NORTHERN NEW YORK_____


CITY           SKY/WX    TMP DP  RH WIND       PRES   REMARKS
PLATTSBURGH    FAIR      60  43  53 SE6       30.47F
SARANAC LAKE   FAIR      57  37  47 E9        30.43S
MASSENA        FAIR      60  50  69 NE10      30.46S
OGDENSBURG*      N/A     61  50  67 E7        30.43F
POTSDAM*       SUNNY     57  52  82 NE8       30.43F
STARK FALLS*     N/A     75 N/A N/A SE5         N/A
WATERTOWN      CLOUDY    60  45  57 NE9       30.39F
FT DRUM        FAIR      59  46  62 E7        30.40F
ALBANY         PTSUNNY   62  43  49 NE10      30.42F
GLENS FALLS    FAIR      62  41  46 NE9       30.45F

$$
NHZ002-005-011-301700-
_____NEW HAMPSHIRE_____


CITY           SKY/WX    TMP DP  RH WIND       PRES   REMARKS
LEBANON        FAIR      58  44  60 NW5       30.49F
KEENE          PTSUNNY   58  46  64 NE12      30.47F
MT WASHINGTON  PTSUNNY   50   1  13 SE18        N/A
PLYMOUTH       FAIR      59  36  43 E6        30.49F
WHITEFIELD     FAIR      58  38  47 E8        30.50S

$$

_____REGIONAL QUEBEC LOCATIONS_____


CITY           SKY/WX    TMP DP  RH WIND       PRES   REMARKS
MONTREAL       PTSUNNY   59  46  63 N12G21    30.48F
QUEBEC CITY    MOSUNNY   59  41  51 E10       30.54F
SHERBROOKE     SUNNY     61  41  48 SE8       30.49F

_____REGIONAL ONTARIO LOCATIONS_____


CITY           SKY/WX    TMP DP  RH WIND       PRES   REMARKS
OTTAWA         PTSUNNY   59  46  63 E12       30.45F

______KEY______
VSB  - VISIBILITY IN MILES
WCI  - WIND CHILL INDEX
HX   - HEAT INDEX
$$
NNNN




USA.gov is the U.S. government's official web portal to all federal, state and local government web resources and services.